Flag for Kosovo Weather past 2 weeks in Uroševac, Kosovo

Now
93 °F

Passing clouds.


Feels Like: 92 °F
Forecast: 62 / 96 °F
Wind: 1 mph from Southwest

Location: Skopje-Petrovec

Current Time: Jul 28, 2015 at 3:59:03 PM

Latest Report: Jul 28, 2015 at 3:30 PM


Visibility: N/A

Pressure: 29.74 "Hg (27.88 "Hg at 582m altitude)

Humidity: 30%

Dew point: 57 °F

Location of UroševacLocation

Historic Weather in Uroševac — Graph

°F

Uroševac temperature yesterday

Maximum temperature yesterday: 95 °F (at 3:30 PM)
Minimum temperature yesterday: 63 °F (at 5:00 AM)
Average temperature yesterday: 79 °F

Past Weeks' High & Low Weather Summary

 TemperatureHumidityPressure
High102 °F (Jul 20, 4:00 PM)100% (Jul 27, 1:00 AM)30.15 "Hg (Jul 27, 1:00 AM)
Low59 °F (Jul 15, 5:00 AM)17% (Jul 23, 5:00 PM)29.68 "Hg (Jul 27, 5:00 PM)
Average82 °F45%29.93 "Hg
* Reported Jul 13 3:00 PM — Jul 28 3:00 PM, Uroševac, Weather by CustomWeather, © 2015

Note: Actual official high and low records may vary slightly from our data, if they occured in-between our weather recording intervals... More about our weather records

Advertising

Uroševac weather history for previous 24 hours

 ConditionsComfort  
Time TempWeatherWind HumidityBarometerVisibility
3:00 PM
Tue, Jul 28
93 °FPassing clouds.5 mph28%29.74 "HgN/A
2:30 PM93 °FPassing clouds.5 mph28%29.77 "HgN/A
2:00 PM91 °FPassing clouds.6 mph36%29.77 "HgN/A
1:30 PM90 °FPassing clouds.3 mph38%29.77 "HgN/A
1:00 PM90 °FPassing clouds.2 mph41%29.80 "HgN/A
12:30 PM88 °FPassing clouds.5 mph43%29.80 "HgN/A
12:00 PM88 °FPassing clouds.3 mph43%29.80 "HgN/A
11:30 AM86 °FPassing clouds.6 mph46%29.80 "HgN/A
11:00 AM84 °FSunny.3 mph45%29.80 "Hg10 mi
10:30 AM84 °FPassing clouds.5 mph43%29.83 "HgN/A
10:00 AM82 °FPassing clouds.5 mph48%29.83 "HgN/A
9:30 AM81 °FPassing clouds.5 mph51%29.83 "HgN/A
9:00 AM81 °FPassing clouds.5 mph54%29.83 "HgN/A
8:30 AM77 °FSunny.2 mph61%29.83 "Hg10 mi
8:00 AM73 °FSunny.3 mph65%29.83 "Hg10 mi
7:30 AM72 °FSunny.2 mph69%29.83 "Hg10 mi
7:00 AM68 °FSunny.2 mph83%29.83 "Hg10 mi
6:30 AM68 °FSunny.2 mph73%29.83 "Hg10 mi
6:00 AM64 °FClear.No wind88%29.80 "Hg10 mi
5:30 AM64 °FClear.2 mph83%29.80 "Hg10 mi
5:00 AM66 °FClear.2 mph83%29.80 "Hg10 mi
4:30 AM66 °FClear.2 mph83%29.77 "Hg10 mi
4:00 AM66 °FClear.No wind83%29.77 "Hg10 mi
3:30 AM68 °FClear.No wind73%29.77 "Hg10 mi
3:00 AM70 °FClear.No wind69%29.77 "Hg10 mi
2:30 AM68 °FClear.No wind83%29.77 "Hg10 mi
2:00 AM70 °FClear.No wind73%29.77 "Hg10 mi
1:30 AM70 °FClear.No wind78%29.74 "Hg10 mi
1:00 AM72 °FClear.3 mph73%29.74 "Hg10 mi
12:00 AM73 °FClear.3 mph69%29.74 "Hg10 mi
11:30 PM
Mon, Jul 27
73 °FClear.3 mph74%29.74 "Hg10 mi
11:00 PM75 °FClear.2 mph69%29.71 "Hg10 mi
10:30 PM77 °FClear.2 mph69%29.71 "Hg10 mi
10:00 PM77 °FClear.2 mph65%29.71 "Hg10 mi
9:30 PM81 °FClear.5 mph54%29.71 "Hg10 mi
9:00 PM82 °FClear.No wind55%29.71 "Hg10 mi
8:30 PM82 °FSunny.No wind58%29.68 "Hg10 mi
8:00 PM86 °FSunny.2 mph49%29.68 "Hg10 mi
7:30 PM90 °FPassing clouds.2 mph43%29.68 "HgN/A
7:00 PM91 °FPassing clouds.2 mph36%29.68 "HgN/A
6:30 PM93 °FPassing clouds.3 mph30%29.68 "HgN/A
6:00 PM95 °FPassing clouds.2 mph26%29.68 "HgN/A
5:30 PM95 °FPassing clouds.2 mph26%29.68 "HgN/A
5:00 PM95 °FPassing clouds.5 mph25%29.68 "HgN/A
4:30 PM95 °FPassing clouds.2 mph23%29.71 "HgN/A
4:00 PM95 °FPassing clouds.3 mph22%29.71 "HgN/A
3:30 PM95 °FPassing clouds.3 mph20%29.71 "HgN/A
3:00 PM93 °FPassing clouds.No wind24%29.71 "HgN/A
Weather by CustomWeather, © 2015

See weather overviewHow to use our weather pages